[[{"header":{"parameterUnit":"m.s-1","parameterCategory":1,"la1":30.2991,"la2":30.254,"lo1":-89.0895,"lo2":-89.0444,"dy":0.0017,"dx":0.0017,"nx":28,"ny":28,"refTime":"2025-12-31T03:00:00:Z","depth":0,"parameterNumber":2,"parameterNumberName":"U-component_of_WINDS"},"data":[0,0,0,0,0,0,0,0,0,0,0,0,0,0,0,0,0,0,0,0,0,0,0,0,0,0,0,0,0,0,0,0,0,0,0,0,0,0,0,0,0,0,0,0,0,0,0,0,0,0,0,0,0,0,0,0,0,0,3.6806,3.6806,0,3.688,3.6881,3.6881,3.6851,3.6849,3.6847,3.6846,3.6924,3.6927,3.6931,0,0,0,0,0,0,0,0,0,0,0,0,0,3.664,3.6643,3.6806,3.6807,3.6807,3.688,3.6881,3.6882,3.6851,3.6849,3.6847,3.6845,3.6922,3.6927,3.6931,0,0,0,0,0,0,0,0,0,0,0,0,0,3.6713,3.6644,3.6805,3.6801,3.6801,3.6879,3.6881,3.6882,3.6852,3.6849,3.6846,3.6844,3.6921,3.6926,3.6932,3.702,0,0,3.6949,3.6951,0,0,0,0,0,0,0,0,3.6709,3.6719,3.6801,3.6801,3.6802,3.6853,3.6851,3.6928,3.6852,3.6833,3.6845,3.6842,3.6903,3.6909,3.6929,3.7023,3.7027,3.695,3.6953,3.6955,3.6957,0,0,0,0,0,0,0,3.6703,3.6715,3.6835,3.6802,3.6803,3.6796,3.6803,3.6865,3.6882,3.6834,3.6832,3.6841,3.6902,3.6924,3.6931,3.7028,3.6949,3.6954,3.6958,3.696,3.7198,3.7201,0,0,0,0,0,0,3.6698,3.6711,3.6833,3.6837,3.6748,3.6801,3.6809,3.6839,3.6881,3.6885,3.6843,3.6839,3.6916,3.6924,3.6934,3.7039,3.6955,3.6961,3.6964,3.7195,3.7199,3.7202,0,0,0,0,0,0,3.6695,3.6709,3.683,3.6774,3.6789,3.6807,3.6841,3.6842,3.6864,3.6888,3.6891,3.6862,3.6914,3.6926,3.6998,3.7041,3.6963,3.6968,3.7191,3.7196,3.72,3.7251,0,0,0,0,0,0,3.669,3.6708,3.6741,3.6775,3.6792,3.6893,3.6843,3.6846,3.6873,3.6869,3.6906,3.691,3.6913,3.699,3.7004,3.7047,3.6973,3.7188,3.7193,3.7199,3.7245,3.7256,3.7266,0,0,0,0,0,3.6684,3.6753,3.6743,3.6758,3.6833,3.6895,3.6905,3.6906,3.6877,3.6911,3.6926,3.6909,3.7034,3.6998,3.7013,3.7059,3.7185,3.7192,3.7198,3.7241,3.7254,3.7265,0,0,0,0,0,0,3.6725,3.6757,3.6747,3.6828,3.6859,3.689,3.6932,3.692,3.6961,3.6955,3.6956,3.6964,3.7039,3.7057,3.7015,3.7146,3.7105,3.7115,3.7132,3.7145,3.7155,3.7149,3.6977,0,0,0,0,0,3.6743,3.679,3.6816,3.6886,3.6902,3.6915,3.6942,3.694,3.6972,3.6985,3.7006,3.7039,3.7085,3.7116,3.7161,3.7248,3.7255,3.7287,3.7297,3.7305,3.7314,3.7361,3.7375,3.7224,3.7224,3.7223,0,0,3.6782,3.6805,3.6835,3.6894,3.6918,3.6967,3.6926,3.698,3.7016,3.6994,3.7063,3.708,3.7116,3.7196,3.7233,3.7213,3.7357,3.7314,3.732,3.7324,3.7369,3.7383,3.7396,3.7228,3.7227,3.7227,0,0,3.6877,3.6899,3.696,3.6984,3.702,3.7028,3.7043,3.7076,3.7086,3.7155,3.7139,3.7183,3.7264,3.7291,3.7315,3.742,3.7406,3.7435,3.7488,3.7534,3.7546,3.7556,3.7594,3.7607,3.7443,3.7443,3.7443,0,3.692,3.6993,3.6992,3.7047,3.7074,3.7055,3.7116,3.7141,3.719,3.7209,3.7186,3.7287,3.731,3.7396,3.7422,3.7442,3.7459,3.743,3.7544,3.7555,3.7565,3.76,3.7614,3.7447,3.7446,3.7446,3.7446,0,3.7045,3.7096,3.714,3.7187,3.7219,3.7277,3.7285,3.7318,3.7313,3.7324,3.7396,3.7423,3.7472,3.7493,3.7489,3.7578,3.7565,3.7543,3.7502,3.7582,3.7616,3.7629,3.7451,3.745,3.7449,3.7448,0,0,3.7168,3.7213,3.723,3.7251,3.7289,3.7329,3.7386,3.7434,3.7462,3.7497,3.7545,3.7613,3.7593,3.7621,3.762,3.766,3.7742,3.7634,3.7635,3.7653,3.7842,3.7857,3.7873,3.7733,3.7735,3.7737,3.7838,0,3.7266,3.7365,3.7366,3.7458,3.7505,3.7488,3.7538,3.7567,3.7579,3.7621,3.7634,3.7683,3.7653,3.7669,3.7708,3.7724,3.778,3.7716,3.7778,3.778,3.7769,3.7891,3.7908,3.8002,3.7852,3.7854,3.7855,0,3.7393,3.7431,3.7528,3.7559,3.7579,3.7624,3.7667,3.7708,3.7741,3.7747,3.7777,3.777,3.7829,3.7786,3.7868,3.7825,3.785,3.7861,3.7865,3.7871,3.7822,3.7899,3.8032,3.8046,3.7876,3.7875,3.7873,0,3.7473,3.7548,3.7616,3.7634,3.7673,3.7705,3.7722,3.7753,3.7781,3.782,3.7838,3.7884,3.7908,3.7944,3.795,3.7918,3.8031,3.7989,3.8038,3.8038,3.8062,3.8061,3.82,3.8079,3.8079,3.8079,3.8078,0,3.7582,3.7642,3.7652,3.7693,3.776,3.776,3.7826,3.7842,3.7869,3.7913,3.7902,3.7944,3.7949,3.7993,3.7998,3.8064,3.8075,3.8082,3.8082,3.8083,3.8082,3.8099,3.8093,3.8082,3.8082,3.8081,3.808,0,3.7682,3.7691,3.7763,3.7794,3.7803,3.7851,3.7877,3.7917,3.7927,3.7983,3.7997,3.8013,3.8064,3.8073,3.8133,3.8137,3.8216,3.821,3.8205,3.8204,3.8252,3.8247,3.8407,3.8428,3.8294,3.8295,3.8296,0,3.7751,3.7796,3.7832,3.786,3.7879,3.7925,3.7954,3.7957,3.7988,3.8029,3.8064,3.8113,3.8153,3.8235,3.8252,3.8298,3.8293,3.8346,3.83,3.8299,3.8294,3.8291,3.8295,3.8355,3.8356,3.8358,3.8359,0,3.7872,3.7874,3.7916,3.796,3.7994,3.8029,3.8061,3.8085,3.8093,3.8128,3.8179,3.821,3.8271,3.832,3.8365,3.8384,3.8373,3.8373,3.8387,3.8387,3.8382,3.8385,3.8228,3.8369,3.8368,3.8367,3.8367,3.8366,3.7959,3.7998,3.8029,3.8076,3.81,3.8131,3.817,3.8185,3.8227,3.8276,3.8276,3.8332,3.8364,3.8424,3.8446,3.849,3.8473,3.8493,3.8498,3.8503,3.8507,3.8375,3.8499,3.8498,3.8498,3.8498,3.8498,0,3.8079,3.8098,3.8141,3.8187,3.8223,3.8209,3.8244,3.8276,3.8326,3.8356,3.8395,3.8454,3.8502,3.8523,3.857,3.8601,3.8597,3.8614,3.8611,3.8615,3.852,3.8503,3.8616,3.8616,3.8616,3.8616,3.8616,3.8616,3.8146,3.8212,3.8218,3.8295,3.8314,3.8368,3.839,3.8418,3.8442,3.8509,3.8548,3.8561,3.8588,3.8637,3.868,3.8685,3.8703,3.8721,3.8724,3.8634,3.8622,3.8611,3.8595,3.8725,3.8725,3.8816,3.8817,3.8817]},{"header":{"parameterUnit":"m.s-1","parameterCategory":1,"la1":30.2991,"la2":30.254,"lo1":-89.0895,"lo2":-89.0444,"dy":0.0017,"dx":0.0017,"nx":28,"ny":28,"refTime":"2025-12-31T03:00:00:Z","depth":0,"parameterNumber":3,"parameterNumberName":"V-component_of_WINDS"},"data":[0,0,0,0,0,0,0,0,0,0,0,0,0,0,0,0,0,0,0,0,0,0,0,0,0,0,0,0,0,0,0,0,0,0,0,0,0,0,0,0,0,0,0,0,0,0,0,0,0,0,0,0,0,0,0,0,0,0,1.0922,1.0922,0,1.0901,1.09,1.09,1.0884,1.0884,1.0884,1.0884,1.086,1.086,1.0859,0,0,0,0,0,0,0,0,0,0,0,0,0,1.0947,1.0947,1.0922,1.0922,1.0922,1.0901,1.09,1.09,1.0884,1.0884,1.0884,1.0884,1.086,1.086,1.0859,0,0,0,0,0,0,0,0,0,0,0,0,0,1.0932,1.0947,1.0922,1.0912,1.091,1.0901,1.09,1.09,1.0885,1.0884,1.0884,1.0884,1.086,1.086,1.0859,1.0858,0,0,1.0857,1.0856,0,0,0,0,0,0,0,0,1.0933,1.0931,1.0913,1.0912,1.0911,1.0895,1.09,1.0886,1.0885,1.0894,1.0884,1.0884,1.0872,1.087,1.0866,1.0857,1.0856,1.0856,1.0856,1.0856,1.0855,0,0,0,0,0,0,0,1.0934,1.0932,1.0914,1.0913,1.0912,1.0907,1.0904,1.0897,1.0884,1.0893,1.0892,1.089,1.0871,1.0867,1.0866,1.0855,1.0856,1.0856,1.0855,1.0855,1.0841,1.0841,0,0,0,0,0,0,1.0937,1.0933,1.0914,1.0913,1.0922,1.0906,1.0904,1.09,1.0884,1.0882,1.089,1.0889,1.0869,1.0867,1.0865,1.0861,1.0856,1.0855,1.0854,1.084,1.0841,1.0841,0,0,0,0,0,0,1.0938,1.0935,1.0915,1.0923,1.092,1.0906,1.0902,1.09,1.0896,1.0882,1.0879,1.0889,1.0868,1.0866,1.0859,1.086,1.0855,1.0854,1.084,1.084,1.0841,1.0854,0,0,0,0,0,0,1.0938,1.0936,1.0936,1.0923,1.0919,1.0911,1.0903,1.09,1.0895,1.0894,1.088,1.0877,1.0868,1.086,1.0858,1.0858,1.0853,1.084,1.084,1.0841,1.0853,1.0854,1.0855,0,0,0,0,0,1.0939,1.0941,1.0936,1.0934,1.092,1.0911,1.0909,1.0899,1.0895,1.0895,1.0885,1.0878,1.086,1.086,1.0857,1.0857,1.084,1.084,1.0841,1.0853,1.0854,1.0855,0,0,0,0,0,0,1.0955,1.0939,1.0934,1.0931,1.0923,1.0909,1.0908,1.0901,1.0893,1.0892,1.0879,1.0876,1.087,1.0863,1.0863,1.0854,1.0849,1.0849,1.0859,1.086,1.0861,1.0863,1.0853,0,0,0,0,0,1.0958,1.0953,1.0939,1.0938,1.0934,1.0922,1.0918,1.091,1.0901,1.0897,1.0887,1.0877,1.0869,1.0864,1.0856,1.0852,1.0847,1.085,1.0851,1.0852,1.0852,1.0847,1.0847,1.0841,1.0841,1.0841,0,0,1.0964,1.0955,1.0953,1.0941,1.0934,1.0928,1.0919,1.0914,1.0909,1.0896,1.0889,1.0881,1.0869,1.0863,1.086,1.0857,1.0852,1.0852,1.0853,1.0853,1.0847,1.0848,1.0848,1.0841,1.0841,1.0841,0,0,1.0973,1.0966,1.0963,1.0956,1.0945,1.0936,1.0935,1.0922,1.0916,1.0909,1.0898,1.0892,1.0879,1.087,1.0864,1.0866,1.0859,1.0864,1.0869,1.0864,1.0865,1.0865,1.0865,1.0865,1.0864,1.0864,1.0864,0,1.0982,1.0974,1.0963,1.0958,1.0952,1.094,1.0936,1.0929,1.0916,1.0911,1.0908,1.089,1.0882,1.0872,1.0872,1.0868,1.0866,1.0866,1.0866,1.0866,1.0866,1.0865,1.0865,1.0865,1.0864,1.0864,1.0864,0,1.0985,1.0979,1.0978,1.0965,1.0959,1.0955,1.0942,1.0937,1.093,1.0921,1.0912,1.0901,1.0889,1.0887,1.088,1.0875,1.0874,1.0869,1.0863,1.0868,1.0867,1.0866,1.0865,1.0865,1.0865,1.0865,0,0,1.1003,1.0983,1.0983,1.0976,1.0962,1.0957,1.0951,1.094,1.0935,1.0925,1.0919,1.0907,1.0901,1.0894,1.0886,1.0882,1.0882,1.0876,1.0876,1.0877,1.0875,1.0878,1.0879,1.0877,1.0877,1.0877,1.0875,0,1.1009,1.0999,1.0988,1.0981,1.0974,1.0962,1.0956,1.0946,1.0937,1.0929,1.0919,1.091,1.0904,1.0899,1.0895,1.0883,1.0881,1.0883,1.0869,1.0869,1.0872,1.0878,1.0883,1.0882,1.0875,1.0875,1.0875,0,1.1015,1.1005,1.0998,1.0982,1.0979,1.0975,1.0962,1.0955,1.0943,1.0936,1.0927,1.0918,1.0909,1.0904,1.0891,1.0892,1.0886,1.0879,1.0879,1.0877,1.0872,1.0875,1.0882,1.0881,1.0875,1.0875,1.0875,0,1.1027,1.1013,1.1006,1.1001,1.0983,1.098,1.0972,1.0959,1.0952,1.0941,1.0936,1.0924,1.0917,1.0907,1.0894,1.0892,1.0881,1.0876,1.0874,1.0874,1.0873,1.0873,1.0877,1.0869,1.0869,1.0869,1.0869,0,1.1034,1.103,1.1011,1.1007,1.1001,1.0988,1.0982,1.0972,1.0961,1.0953,1.0941,1.0934,1.0917,1.0908,1.0897,1.0886,1.0884,1.0877,1.0874,1.0878,1.0879,1.0873,1.0873,1.0869,1.0869,1.0869,1.0869,0,1.1048,1.1035,1.1027,1.101,1.1006,1.1002,1.0987,1.0981,1.0971,1.0961,1.0958,1.0942,1.0929,1.0915,1.0898,1.0891,1.0881,1.0877,1.0885,1.0884,1.0882,1.0882,1.0883,1.0881,1.0876,1.0876,1.0876,0,1.1053,1.1049,1.1031,1.1026,1.1018,1.101,1.1002,1.0988,1.0981,1.0965,1.0961,1.0948,1.0937,1.0917,1.0903,1.0889,1.0885,1.0885,1.0882,1.0885,1.0883,1.0883,1.0882,1.0886,1.0887,1.0887,1.0887,0,1.1062,1.1056,1.1047,1.1035,1.1027,1.1017,1.1006,1.1001,1.0985,1.0977,1.0964,1.0956,1.0938,1.0924,1.0909,1.0899,1.0889,1.0888,1.0886,1.089,1.0894,1.0891,1.0887,1.0888,1.0888,1.0888,1.0888,1.0888,1.1071,1.1066,1.1053,1.1042,1.1033,1.1022,1.1016,1.1004,1.0994,1.0979,1.0971,1.0958,1.0943,1.092,1.0911,1.0899,1.0896,1.0895,1.0894,1.0894,1.0894,1.0897,1.0896,1.0896,1.0896,1.0896,1.0896,0,1.1079,1.107,1.106,1.1045,1.1036,1.1029,1.1016,1.1008,1.0997,1.0985,1.0973,1.0958,1.0944,1.0928,1.0913,1.0907,1.0902,1.0903,1.0903,1.09,1.0899,1.0901,1.0907,1.0907,1.0907,1.0907,1.0907,1.0907,1.1082,1.1073,1.1065,1.1051,1.1041,1.1029,1.1022,1.1011,1.1001,1.0984,1.0973,1.0963,1.0948,1.0931,1.0917,1.0912,1.0907,1.0909,1.0903,1.0902,1.0901,1.09,1.0902,1.0908,1.0908,1.0906,1.0906,1.0906]}]]